TimeCST,TemperatureF,Dew PointF,Humidity,Sea Level PressureIn,VisibilityMPH,Wind Direction,Wind SpeedMPH,Gust SpeedMPH,PrecipitationIn,Events,Conditions,WindDirDegrees,DateUTC
12:55 AM,35.2,27.9,74,30.12,10.0,NNW,4.6,-,N/A,,Clear,340,2011-11-29 06:55:00
1:55 AM,33.8,29.8,85,30.15,10.0,NE,5.8,-,N/A,,Clear,40,2011-11-29 07:55:00
2:55 AM,33.1,28.8,84,30.17,10.0,North,6.9,-,N/A,,Clear,350,2011-11-29 08:55:00
3:55 AM,39.0,28.2,65,30.17,10.0,Calm,Calm,-,N/A,,Clear,0,2011-11-29 09:55:00
4:55 AM,38.1,30.7,75,30.20,10.0,NW,11.5,-,N/A,,Clear,320,2011-11-29 10:55:00
5:55 AM,39.7,30.0,68,30.22,10.0,NNW,13.8,-,N/A,,Clear,340,2011-11-29 11:55:00
6:55 AM,39.4,28.8,66,30.25,10.0,North,19.6,24.2,N/A,,Clear,10,2011-11-29 12:55:00
7:55 AM,40.3,29.7,66,30.27,10.0,North,17.3,-,N/A,,Clear,10,2011-11-29 13:55:00
8:55 AM,43.2,31.3,63,30.32,10.0,North,19.6,26.5,N/A,,Clear,10,2011-11-29 14:55:00
9:55 AM,45.7,33.1,61,30.34,10.0,North,19.6,-,N/A,,Clear,10,2011-11-29 15:55:00
10:55 AM,48.7,34.0,57,30.34,10.0,NNE,16.1,-,N/A,,Clear,20,2011-11-29 16:55:00
11:55 AM,50.7,35.8,57,30.34,10.0,North,16.1,-,N/A,,Clear,10,2011-11-29 17:55:00
12:55 PM,52.3,35.8,53,30.32,10.0,North,13.8,-,N/A,,Clear,10,2011-11-29 18:55:00
1:55 PM,53.6,35.4,50,30.30,10.0,North,9.2,-,N/A,,Clear,360,2011-11-29 19:55:00
2:55 PM,54.9,32.2,42,30.29,10.0,NNE,12.7,-,N/A,,Clear,20,2011-11-29 20:55:00
3:55 PM,55.2,27.7,35,30.28,10.0,NNE,11.5,-,N/A,,Clear,20,2011-11-29 21:55:00
4:55 PM,51.1,29.7,44,30.29,10.0,North,8.1,-,N/A,,Clear,10,2011-11-29 22:55:00
5:55 PM,45.3,31.8,59,30.29,10.0,NNE,6.9,-,N/A,,Scattered Clouds,20,2011-11-29 23:55:00
6:55 PM,46.6,29.7,52,30.30,10.0,NNW,6.9,-,N/A,,Scattered Clouds,340,2011-11-30 00:55:00
7:55 PM,45.0,31.1,58,30.31,7.0,North,6.9,-,N/A,,Overcast,350,2011-11-30 01:55:00
8:55 PM,44.2,28.4,54,30.31,10.0,North,5.8,-,N/A,,Clear,350,2011-11-30 02:55:00
9:55 PM,38.3,29.5,71,30.30,10.0,North,4.6,-,N/A,,Clear,10,2011-11-30 03:55:00
10:55 PM,38.1,29.8,72,30.30,10.0,North,3.5,-,N/A,,Clear,360,2011-11-30 04:55:00
11:55 PM,32.7,27.9,82,30.30,10.0,Calm,Calm,-,N/A,,Clear,0,2011-11-30 05:55:00